Brownsville, TX

11:22 AM CST on February 12, 2016 (GMT -0600)
Brownsville-South Padre I International

Weather History for KBRO - January, 2012

Change the Weather History Date:

Saturday, January 14, 2012

  Actual Average Record
Temperature  
Mean Temperature 62 °F 61 °F  
Max Temperature 70 °F 70 °F 88 °F (1887)
Min Temperature 54 °F 51 °F 25 °F (1982)
Degree Days  
Heating Degree Days 3 6  
Month to date heating degree days 61 84  
Since 1 July heating degree days 243 303  
Cooling Degree Days 0 2  
Month to date cooling degree days 17 28  
Year to date cooling degree days 17 28  
Growing Degree Days 12 (Base 50)    
Moisture  
Dew Point 49 °F    
Average Humidity 65    
Maximum Humidity 78    
Minimum Humidity 52    
Precipitation  
Precipitation 0.00 in 0.04 in 2.87 in (1945)
Month to date precipitation 0.25 0.51  
Year to date precipitation 0.25 0.51  
Sea Level Pressure  
Sea Level Pressure 30.35 in    
Wind  
Wind Speed 7 mph (NNE)    
Max Wind Speed 16 mph    
Max Gust Speed 22 mph    
Visibility 10 miles    
Events      
T = Trace of Precipitation, MM = Missing Value Source: NWS Daily Summary

Daily Weather History Graph

Daily Weather History Graph

Search for Another Location

Airport or City:

Trip Planner

Search our weather history database for the weather conditions in past years. The results will help you decide how hot, cold, wet, or windy it might be!

Date:

Astronomy

Jan. 14, 2012 Rise Set
Actual Time 7:18 AM CST 5:59 PM CST
Civil Twilight 6:53 AM CST 6:24 PM CST
Nautical Twilight 6:25 AM CST 6:52 PM CST
Astronomical Twilight 5:57 AM CST 7:20 PM CST
Moon 11:37 PM CST (1/14) 10:44 AM CST (1/14)
Length of Visible Light 11h 30m
Length of Day
10h 40m
Waning Gibbous, 68% of the Moon is Illuminated
Jan 14
Waning Gibbous
Jan 16
Last Quarter
Jan 23
New
Jan 30
First Quarter
Feb 7
Full

Hourly Weather History & Observations

Time (CST) Temp. Dew Point Humidity Pressure Visibility Wind Dir Wind Speed Gust Speed Precip Events Conditions
12:53 AM 55.9 °F 45.0 °F 67% 30.33 in 10.0 mi North 3.5 mph - N/A   Overcast
1:53 AM 55.9 °F 45.0 °F 67% 30.32 in 10.0 mi North 5.8 mph - N/A   Overcast
2:53 AM 55.0 °F 45.0 °F 69% 30.32 in 10.0 mi North 5.8 mph - N/A   Overcast
3:53 AM 55.9 °F 45.0 °F 67% 30.32 in 10.0 mi North 3.5 mph - N/A   Overcast
4:53 AM 55.0 °F 46.0 °F 72% 30.32 in 10.0 mi NNW 4.6 mph - N/A   Overcast
5:53 AM 55.0 °F 46.0 °F 72% 30.34 in 10.0 mi North 5.8 mph - N/A   Overcast
6:53 AM 55.0 °F 46.0 °F 72% 30.36 in 10.0 mi North 5.8 mph - N/A   Mostly Cloudy
7:53 AM 55.9 °F 46.9 °F 72% 30.39 in 10.0 mi North 4.6 mph - N/A   Overcast
8:53 AM 61.0 °F 48.9 °F 64% 30.40 in 10.0 mi North 6.9 mph - N/A   Partly Cloudy
9:53 AM 64.9 °F 50.0 °F 58% 30.42 in 10.0 mi NNE 9.2 mph - N/A   Overcast
10:53 AM 66.0 °F 50.0 °F 56% 30.42 in 10.0 mi NNE 11.5 mph - N/A   Overcast
11:53 AM 68.0 °F 50.0 °F 52% 30.40 in 10.0 mi NE 12.7 mph - N/A   Overcast
12:53 PM 68.0 °F 50.0 °F 52% 30.36 in 10.0 mi NE 8.1 mph - N/A   Mostly Cloudy
1:53 PM 66.9 °F 51.1 °F 57% 30.35 in 10.0 mi NNE 9.2 mph - N/A   Overcast
2:53 PM 64.9 °F 48.0 °F 54% 30.33 in 10.0 mi NE 13.8 mph 19.6 mph N/A   Overcast
3:53 PM 64.9 °F 46.9 °F 52% 30.32 in 10.0 mi NE 9.2 mph - N/A   Mostly Cloudy
4:53 PM 63.0 °F 46.9 °F 56% 30.33 in 10.0 mi NE 10.4 mph - N/A   Overcast
5:53 PM 62.1 °F 48.0 °F 60% 30.34 in 10.0 mi NE 5.8 mph - N/A   Overcast
6:53 PM 61.0 °F 48.9 °F 64% 30.34 in 10.0 mi NE 5.8 mph - N/A   Overcast
7:53 PM 61.0 °F 50.0 °F 67% 30.34 in 10.0 mi NE 5.8 mph - N/A   Overcast
8:53 PM 61.0 °F 51.1 °F 70% 30.35 in 10.0 mi Calm Calm - N/A   Overcast
9:53 PM 61.0 °F 53.1 °F 75% 30.36 in 10.0 mi Calm Calm - N/A   Overcast
10:53 PM 62.1 °F 54.0 °F 75% 30.36 in 10.0 mi ENE 4.6 mph - N/A   Overcast
11:53 PM 62.1 °F 55.0 °F 78% 30.35 in 10.0 mi NE 5.8 mph - N/A   Overcast